This is the latest recevied weather packets stored in our database for station/object LU2DKV-10. If no packets are shown the sender has not sent any weather packets the latest 10 day(s).
| Time | Temp. | Humidity | Pressure | Rain* | Wind** | Luminosity | Snow |
|---|---|---|---|---|---|---|---|
| 1787863046 | 14.44° C | 97% | 1007 hPa | - | - | 0 W/m² | - |
| 1787861222 | 15° C | 95% | 1006 hPa | - | - | 0 W/m² | - |
| 1787859399 | 15° C | 99% | 1006 hPa | - | - | 0 W/m² | - |
| 1787857575 | 15° C | 92% | 1007 hPa | - | - | 0 W/m² | - |
| 1787855751 | 15° C | 88% | 1006 hPa | - | - | 0 W/m² | - |
| 1787853927 | 15.56° C | 86% | 1005 hPa | - | - | 0 W/m² | - |
| 1787852106 | 15° C | 90% | 1006 hPa | - | - | 0 W/m² | - |
| 1787850281 | 15° C | 90% | 1004 hPa | - | - | 0 W/m² | - |
| 1787848459 | 14.44° C | 96% | 1006 hPa | - | - | 0 W/m² | - |
| 1787844132 | 13.89° C | 98% | 1009 hPa | - | - | 0 W/m² | - |
| 1787842309 | 13.89° C | 92% | 1008 hPa | - | - | 0 W/m² | - |
| 1787840484 | 13.89° C | 93% | 1007 hPa | - | - | 0 W/m² | - |
| 1787838657 | 13.33° C | 94% | 1008 hPa | - | - | 0 W/m² | - |
| 1787836835 | 13.33° C | 96% | 1007 hPa | - | - | 0 W/m² | - |
| 1787834231 | 12.78° C | 98% | 1007 hPa | - | - | 0 W/m² | - |
| 1787832404 | 12.78° C | 99% | 1008 hPa | - | - | 0 W/m² | - |
| 1787830577 | 12.78° C | 99% | 1007 hPa | - | - | 0 W/m² | - |
| 1787828753 | 12.78° C | 99% | 1007 hPa | - | - | 0 W/m² | - |
| 1787826931 | 12.22° C | 99% | 1006 hPa | - | - | 0 W/m² | - |
| 1787825109 | 12.22° C | 99% | 1007 hPa | - | - | 0 W/m² | - |
| 1787823286 | 12.78° C | 99% | 1007 hPa | - | - | 0 W/m² | - |
| 1787821455 | 12.78° C | 99% | 1005 hPa | - | - | 0 W/m² | - |
| 1787819632 | 12.78° C | 99% | 1005 hPa | - | - | 0 W/m² | - |
| 1787817810 | 12.78° C | 99% | 1005 hPa | - | - | 0 W/m² | - |
| 1787815988 | 13.33° C | 99% | 1005 hPa | - | - | 0 W/m² | - |
* Rain since midnight (hover to see other rain measurements)
** Current wind speed in m/s (hover to see current wind gust speed)